User: anonymous   Login
Location: ??
(35.5052°N, 139.7262°E)
Time: 15:17:47
(UTC+00:00)
Language:

ERS-1 Rocket - Orbit

View from above orbital plane
View from above orbital plane
View from above satellite
View from above satellite

Ground track
Ground track

The orbit data is extracted from the following two-line orbital elements,

1 21610U 91050F   21263.23797918  .00000035  00000-0  24485-4 0  9990
2 21610  98.4160 332.5474 0002484 339.2774  88.4337 14.40964332584197
Epoch (UTC): 20 September 2021 05:42:41
Eccentricity: 0.0002484
inclination: 98.4160°
perigee height: 753 km
apogee height: 757 km
right ascension of ascending node: 332.5474°
argument of perigee: 339.2774°
revolutions per day: 14.40964332
mean anomaly at epoch: 88.4337°
orbit number at epoch: 58419

The dashed part of the orbit path shows where the satellite is in the earth's shadow,  

DLR